Instant Pot Duo Mini
Oral-B Black Pro 1000 Power Rechargeable
Waterpik ADA Accepted WP-660 Aquarius Wa
Dash Rapid Egg Cooker
SanDisk 64GB Ultra microSDXC UHS-I Memor
TV/연예 | 해외직구/쇼핑정보 | 힐링/여행 | 코믹/엽기/이슈 | 문화/다큐 | 건강/다이어트 | 홈/푸드 | 뷰티/패션 | 영어공부 | 생활Tip
[Amazon] Lenox Butterfly Meadow 12 Piece
[Amazon] Epicurean New T-Line Pig-Shaped
[Amazon] Tempur pedic cloud pillow $34.5
[Amazon] 제습기 Electric Dehumidifier fo
[Amazon] 농협 브랜드 자연에서 나온 집밥
[Amazon] MISSHA M Perfect Cover BB Cream
☞ You May Like...




[성인쇼핑] 좀더 특별한(?) 밤을 위하여.~
[19쇼핑] 진동기 - 지니 듀스 화이트/플럼
[19+] 러브젤 - 플레이젤 다이렉트필



♧ 재미있는 추천 컨텐츠 <클릭! 클릭!> ♧
한국 거주 외국인이 뽑은 한국 음식들
잘 찢는 낸시
몸으로 교통사고의 위험성을 알려주는 대륙
한입만 먹고 줄께..~


▷ TV/드라마 ◁


번호     글 제 목 작성일
37 차달래 부인의 사랑 46회 11/5  2018-11-04
36 나도 엄마야 110회 11/5  2018-11-04
35 플레이어 12회 11/4  2018-11-04
34 내 사랑 치유기 15회, 16회 11/4  2018-11-04
33 나인룸 10회 11/4  2018-11-04
32 내 사랑 치유기 13회, 14회 11/4  2018-11-04
31 하나뿐인 내편 31회, 32회 11/4  2018-11-04
30 [웹드라마] 짝사랑 전세역전 1회 ~ 3회 11/4  2018-11-03
29 제3의 매력 12회 11/3  2018-11-03
28 플레이어 11회 11/3  2018-11-03
27 숨바꼭질 39회, 40회 11/3  2018-11-03
26 미스마-복수의 여신 19회, 20회 11/3  2018-11-03
25 나인룸 9회 11/3  2018-11-03
24 숨바꼭질 37회, 38회 11/3  2018-11-03
23 미스마-복수의 여신 17회, 18회 11/3  2018-11-03
22 하나뿐인 내편 29회, 30회 11/3  2018-11-03
21 독립영화관 - 올드 마린보이 11/3  2018-11-02
20 열두밤 4회 11/2  2018-11-02
19 제3의 매력 11회 11/2  2018-11-02
18 빅 포레스트 9회 11/2  2018-11-02
17 KBS 드라마 스페셜 2018 - 엄마의 세 번째 결혼 11/2  2018-11-02
16 단짠 오피스 6회 11/2  2018-11-02
15 내일도 맑음 121회 11/2  2018-11-02
14 끝까지 사랑 65회 11/2  2018-11-02
13 비밀과 거짓말 75회 11/2  2018-11-02
12 차달래 부인의 사랑 45회 11/2  2018-11-01
11 나도 엄마야 109회 11/2  2018-11-01
10 손 the guest 16회 마지막회 11/1  2018-11-01
9 대장금이 보고있다 4회 11/1  2018-11-01
8 설렘주의보 2회 11/1  2018-11-01
7 새 수목 드라마 '죽어도 좋아' - 스페셜 강지환·백진희 전쟁의 서막 11/1  2018-11-01
6 흉부외과-심장을 훔친 의사들 23, 24회 11/1  2018-11-01
5 내 뒤에 테리우스 23. 24회 11/1  2018-11-01
4 하늘에서 내리는 일억개의 별 10회 11/1  2018-11-01
3 내일도 맑음 120회 11/1  2018-11-01
1,,,1112
ikoreantv.com is contain only links to other sites on the Internet. We do not host or upload any video, films, media files.
ikoreantv.com is not responsible for the accuracy, compliance, copyright, legality, decency, or any other aspect of the content of other linked sites.
If you have any legal issues please contact appropriate media file owners/hosters.